Location: Bellerive
(46.9237°N, 7.0223°E)
Time: 19:45:23
(UTC+00:00)

Cosmos 2058 - Pass Details

Date: 09 April 2020
Orbit: 563 x 583 km, 82.5° (Epoch: 03 June)

Event Time Altitude Azimuth Distance (km) Brightness Sun altitude
Rises 20:50:42 0° 343° (NNW) 2,775 7.4 -24.3°
Reaches altitude 10° 20:52:59 10° 336° (NNW) 1,876 6.5 -24.6°
Maximum altitude 20:56:48 38° 268° (W) 884 4.1 -25.0°
Enters shadow 20:57:31 35° 243° (WSW) 937 4.0 -25.1°
